TimeMDT,TemperatureF,Dew PointF,Humidity,Sea Level PressureIn,VisibilityMPH,Wind Direction,Wind SpeedMPH,Gust SpeedMPH,PrecipitationIn,Events,Conditions,WindDirDegrees,DateUTC
12:53 AM,64.9,37.0,36,29.88,10.0,ENE,24.2,35.7,N/A,,Clear,60,2012-09-07 06:53:00
1:53 AM,62.1,37.9,41,29.91,10.0,NE,17.3,25.3,N/A,,Clear,50,2012-09-07 07:53:00
2:53 AM,59.0,37.0,44,29.96,10.0,North,18.4,-,N/A,,Clear,10,2012-09-07 08:53:00
3:53 AM,60.1,37.0,42,29.99,10.0,North,17.3,-,N/A,,Clear,360,2012-09-07 09:53:00
4:53 AM,60.1,37.0,42,30.03,10.0,North,15.0,-,N/A,,Clear,360,2012-09-07 10:53:00
5:53 AM,57.9,37.9,47,30.03,10.0,NNE,19.6,-,N/A,,Partly Cloudy,20,2012-09-07 11:53:00
6:53 AM,57.0,39.0,51,30.09,10.0,North,13.8,-,N/A,,Overcast,10,2012-09-07 12:53:00
7:53 AM,55.9,43.0,62,30.12,10.0,NNE,15.0,-,N/A,,Mostly Cloudy,20,2012-09-07 13:53:00
8:53 AM,57.0,44.1,62,30.14,10.0,North,12.7,-,N/A,,Mostly Cloudy,360,2012-09-07 14:53:00
9:53 AM,57.9,45.0,62,30.14,10.0,North,15.0,-,0.00,,Overcast,360,2012-09-07 15:53:00
10:53 AM,63.0,45.0,52,30.15,10.0,North,13.8,18.4,N/A,,Mostly Cloudy,350,2012-09-07 16:53:00
11:53 AM,66.9,44.1,44,30.17,10.0,North,10.4,21.9,N/A,,Mostly Cloudy,10,2012-09-07 17:53:00
12:53 PM,70.0,43.0,38,30.16,10.0,North,16.1,23.0,N/A,,Mostly Cloudy,360,2012-09-07 18:53:00
1:53 PM,68.0,42.1,39,30.17,10.0,North,13.8,21.9,N/A,,Mostly Cloudy,10,2012-09-07 19:53:00
2:53 PM,66.0,41.0,40,30.19,10.0,North,17.3,21.9,N/A,,Overcast,10,2012-09-07 20:53:00
3:53 PM,66.9,42.1,40,30.17,10.0,NNE,16.1,-,N/A,,Mostly Cloudy,20,2012-09-07 21:53:00
4:53 PM,68.0,42.1,39,30.18,10.0,North,16.1,-,N/A,,Partly Cloudy,10,2012-09-07 22:53:00
5:53 PM,68.0,42.1,39,30.18,10.0,North,9.2,-,N/A,,Mostly Cloudy,10,2012-09-07 23:53:00
6:53 PM,64.0,41.0,43,30.20,10.0,North,6.9,-,N/A,,Clear,10,2012-09-08 00:53:00
7:53 PM,57.0,39.0,51,30.25,10.0,NNE,5.8,-,N/A,,Clear,20,2012-09-08 01:53:00
8:53 PM,57.0,39.9,53,30.27,10.0,Calm,Calm,-,N/A,,Clear,0,2012-09-08 02:53:00
9:53 PM,55.9,39.0,53,30.28,10.0,Calm,Calm,-,N/A,,Clear,0,2012-09-08 03:53:00
10:53 PM,54.0,39.9,59,30.28,10.0,Calm,Calm,-,N/A,,Clear,0,2012-09-08 04:53:00
11:53 PM,53.1,41.0,64,30.28,10.0,Calm,Calm,-,N/A,,Clear,0,2012-09-08 05:53:00